ONEWEB-0061, 45428

Orbit data source: Space-Track

ONEWEB-0061, 45428 is a payload satellite owned by One Web (UK) in LEO that was launched on Sat, 21 Mar 2020 UTC via a SOYUZ-2-1B launch vehicle from the Tyuratam Missile And Space Complex (TTMTR). Payload-class satellites include a variety of spacecraft equipped with specific instruments for various scientific and technological missions. These include communications satellites like Starlink; space stations such as the ISS; scientific satellites like the Hubble; Earth observation satellites from companies like Planet Labs, Umbra, and HawkEye 360; GPS; miniature CubeSats for education and research; and military/defense satellites.

Loading next visibility...
Identifier
45428, 2020-020E
Orbit
LEO
Last TLE update
16 hours ago
Origin
Manufacturer
One Web
Mission
Operational Commercial Communications
Bus & Motor
ARROW, Unknown motor
Mass
148 kg wet, ~140 kg dry
Launch date (UTC)
2020-03-21 (5 years ago)
Launch vehicle
SOYUZ-2-1B
Launch site
Tyuratam Missile And Space Complex (TTMTR)
Object type
Payload
Rocket body
Debris
Shape & HBR
Trap Box + 2 Pan, 5 m
Radar Cross Section
2.957 m², Large (>1 m²)

Expand to show TLE details & history

TLE from 16 hours ago
0 ONEWEB-0061
1 45428U 20020E   25181.74568000  .00000458  00000-0  12571-2 0  9999
2 45428  87.8837  91.0959 0001955  79.3306 280.8042 13.11415667256560
Epoch: 2025-06-30T17:53Z
TLE epoch observation values (Epoch: 2025-06-30T17:53:46.752Z)
Latitude
Longitude
-96.39997°
Altitude
1,220.299 km
Speed
7.244 km/s
True Right ascension
06h 04m 23s
True Declination
0° 00' 00"
Sunlit
Object was in daylight at epoch
Visualization orbit readout
Latitude
-66.53457°
Longitude
88.32664°
Altitude
1,244.433 km
Speed
7.231 km/s
Apparent Right ascension
11h 58m 46s
Apparent Declination
-72° 16' 37"
Sunlit
Object is in full shadow
Visualization observer readout
Local Sidereal Time
21:26:14
Azimuth
198.047° SSW
Elevation
-52.642°
Doppler factor
1
Orbital elements
Apogee altitude
1,216.29 km
Perigee altitude
1,213.321 km
Semi-major axis
7,592.943 km
Eccentricity
0.0002
Inclination
87.8837°
RAAN
91.0959°
Arg. of periapsis
79.3306°
True anomaly
Unknown
Mean anomaly
280.8042°
Eccentric anomaly
Unknown
Mean motion
3.28041 °/min
Orbital period
109.74 mins
BSTAR
0.0012571
Loading maneuver chart data...
Loading SW <> Apogee altitude chart data...
Loading historical data...
Loading historical data...
Loading historical data...
Loading historical data...
Loading historical data...
Loading historical data...
Loading historical data...

ONEWEB-0061 Visibility forecast

Observer location: undefined°, undefined°

Span
Click to sort rows by Start time (UTC) header in descending order
Start Az.
Max El. time (UTC)
Max El. Az.
Max El.
End time (UTC)
End Az.
13 mins2025-07-01 17:47:53.508Z155.123° SSE2025-07-01 17:53:53.508Z95.406° ESE37.696°2025-07-01 18:00:53.508Z11.933° NNE
10 mins2025-07-01 19:39:53.508Z233.095° WSW2025-07-01 19:44:53.508Z286.906° WNW25.304°2025-07-01 19:49:53.508Z334.937° NNW
11 mins2025-07-02 05:18:53.508Z22.155° NNE2025-07-02 05:23:53.508Z84.731° E33.243°2025-07-02 05:29:53.508Z148.324° SSE
11 mins2025-07-02 07:08:53.508Z333.454° NNW2025-07-02 07:13:53.508Z273.632° WNW30.018°2025-07-02 07:19:53.508Z218.134° SW
|